QPF
0.02 0.03 0.02 0.02 0.03 0.03 0.03 0.02 0.02 0.03 0.03 0.03 0.03 0.03 0.03 0.03 0.03 0.02 0.01 0.01 0.01 0.00 0.00 0.01 0.02 0.03 0.02 0.01 0.01 0.03 0.02 0.02 0.02 0.02 0.03 0.05 0.07 0.04 0.02 0.03 0.03 0.02 0.03
0.02 0.02 0.01 0.02 0.02 0.02 0.03 0.03 0.03 0.03 0.02 0.02 0.02 0.02 0.03 0.03 0.03 0.03 0.02 0.01 0.01 0.00 0.00 0.00 0.01 0.02 0.02 0.02 0.01 0.02 0.02 0.01 0.01 0.01 0.04 0.06 0.07 0.01 0.01 0.02 0.02 0.03 0.04
0.03 0.02 0.01 0.02 0.02 0.02 0.02 0.03 0.02 0.02 0.02 0.02 0.02 0.02 0.02 0.03 0.03 0.03 0.02 0.02 0.02 0.01 0.01 0.00 0.00 0.01 0.01 0.02 0.03 0.04 0.02 0.01 0.01 0.01 0.04 0.06 0.08 0.02 0.01 0.02 0.01 0.02 0.04
0.02 0.02 0.02 0.02 0.03 0.03 0.03 0.03 0.03 0.03 0.02 0.02 0.02 0.02 0.03 0.03 0.02 0.02 0.02 0.02 0.02 0.02 0.02 0.01 0.01 0.01 0.02 0.04 0.05 0.04 0.01 0.01 0.01 0.01 0.03 0.05 0.07 0.03 0.02 0.01 0.01 0.02 0.04
0.01 0.01 0.02 0.03 0.03 0.03 0.03 0.03 0.03 0.03 0.03 0.03 0.03 0.02 0.02 0.02 0.02 0.02 0.02 0.02 0.03 0.03 0.04 0.03 0.02 0.03 0.06 0.07 0.05 0.03 0.01 0.01 0.01 0.01 0.03 0.06 0.05 0.03 0.03 0.01 0.01 0.02 0.03
0.01 0.01 0.01 0.02 0.02 0.03 0.04 0.04 0.04 0.03 0.03 0.03 0.03 0.02 0.02 0.01 0.02 0.03 0.03 0.01 0.02 0.03 0.03 0.03 0.03 0.03 0.05 0.05 0.04 0.03 0.02 0.02 0.01 0.02 0.04 0.08 0.04 0.02 0.02 0.01 0.01 0.02 0.02
0.02 0.02 0.01 0.02 0.03 0.03 0.04 0.04 0.03 0.03 0.03 0.04 0.04 0.04 0.03 0.02 0.03 0.03 0.03 0.01 0.01 0.01 0.02 0.02 0.02 0.03 0.04 0.03 0.04 0.03 0.03 0.03 0.03 0.03 0.06 0.10 0.05 0.03 0.02 0.01 0.01 0.01 0.02
0.02 0.02 0.02 0.02 0.02 0.03 0.03 0.03 0.03 0.03 0.03 0.03 0.04 0.05 0.05 0.03 0.02 0.03 0.03 0.01 0.01 0.01 0.01 0.01 0.02 0.02 0.03 0.03 0.02 0.02 0.03 0.03 0.04 0.04 0.06 0.10 0.07 0.05 0.03 0.02 0.02 0.02 0.03
0.01 0.01 0.02 0.02 0.03 0.03 0.03 0.03 0.03 0.03 0.03 0.02 0.02 0.03 0.03 0.03 0.03 0.03 0.03 0.02 0.01 0.01 0.01 0.01 0.01 0.02 0.03 0.03 0.02 0.02 0.02 0.02 0.03 0.03 0.04 0.09 0.09 0.06 0.05 0.04 0.05 0.05 0.05
0.01 0.01 0.01 0.02 0.03 0.03 0.04 0.04 0.03 0.03 0.04 0.03 0.03 0.03 0.03 0.03 0.03 0.03 0.03 0.01 0.01 0.01 0.01 0.01 0.01 0.02 0.03 0.03 0.02 0.02 0.02 0.02 0.02 0.02 0.04 0.08 0.08 0.06 0.06 0.05 0.06 0.04 0.04
0.01 0.01 0.01 0.01 0.02 0.02 0.03 0.04 0.04 0.06 0.06 0.06 0.05 0.04 0.03 0.03 0.04 0.04 0.03 0.02 0.01 0.01 0.01 0.01 0.01 0.02 0.02 0.02 0.02 0.02 0.02 0.02 0.02 0.03 0.05 0.07 0.06 0.06 0.07 0.07 0.06 0.04 0.03
0.02 0.01 0.01 0.01 0.02 0.03 0.04 0.04 0.04 0.05 0.07 0.08 0.07 0.06 0.04 0.03 0.03 0.04 0.03 0.02 0.01 0.01 0.01 0.01 0.01 0.01 0.01 0.01 0.01 0.02 0.03 0.03 0.03 0.04 0.05 0.05 0.06 0.07 0.07 0.05 0.04 0.03 0.03
0.02 0.02 0.02 0.01 0.01 0.02 0.03 0.03 0.03 0.03 0.05 0.06 0.06 0.05 0.04 0.03 0.03 0.03 0.02 0.02 0.02 0.02 0.01 0.01 0.02 0.01 0.01 0.01 0.01 0.02 0.02 0.02 0.03 0.04 0.04 0.05 0.06 0.07 0.06 0.04 0.03 0.03 0.02
0.02 0.02 0.01 0.01 0.02 0.02 0.03 0.03 0.03 0.03 0.03 0.03 0.04 0.04 0.03 0.02 0.02 0.02 0.02 0.02 0.02 0.02 0.03 0.02 0.02 0.01 0.01 0.01 0.01 0.01 0.01 0.02 0.03 0.04 0.04 0.05 0.05 0.05 0.06 0.05 0.03 0.03 0.02
0.02 0.02 0.02 0.02 0.03 0.04 0.03 0.03 0.04 0.03 0.03 0.03 0.02 0.02 0.02 0.01 0.02 0.02 0.02 0.02 0.02 0.02 0.02 0.02 0.02 0.02 0.02 0.02 0.02 0.03 0.03 0.04 0.04 0.04 0.04 0.05 0.06 0.05 0.06 0.06 0.05 0.03 0.02
0.01 0.02 0.02 0.04 0.04 0.04 0.03 0.03 0.02 0.02 0.02 0.02 0.02 0.01 0.01 0.01 0.01 0.01 0.01 0.01 0.02 0.02 0.02 0.02 0.02 0.02 0.03 0.03 0.03 0.04 0.05 0.06 0.06 0.05 0.04 0.05 0.06 0.06 0.07 0.08 0.06 0.05 0.03
0.01 0.01 0.02 0.04 0.04 0.04 0.03 0.02 0.02 0.02 0.01 0.01 0.01 0.01 0.01 0.01 0.01 0.01 0.01 0.01 0.02 0.02 0.02 0.01 0.02 0.02 0.02 0.02 0.03 0.04 0.04 0.05 0.05 0.06 0.06 0.05 0.06 0.06 0.07 0.08 0.08 0.07 0.05
0.01 0.01 0.02 0.02 0.02 0.03 0.03 0.03 0.02 0.02 0.02 0.02 0.01 0.01 0.01 0.01 0.01 0.01 0.01 0.01 0.02 0.02 0.02 0.01 0.01 0.01 0.01 0.02 0.03 0.04 0.04 0.04 0.04 0.04 0.04 0.04 0.04 0.04 0.04 0.05 0.06 0.06 0.05
0.01 0.01 0.01 0.01 0.01 0.01 0.01 0.02 0.02 0.02 0.02 0.02 0.02 0.02 0.01 0.01 0.01 0.01 0.01 0.01 0.02 0.03 0.03 0.02 0.02 0.01 0.01 0.02 0.02 0.03 0.04 0.04 0.04 0.04 0.03 0.03 0.02 0.02 0.03 0.03 0.04 0.04 0.03
0.01 0.01 0.01 0.01 0.01 0.01 0.02 0.01 0.01 0.02 0.02 0.03 0.03 0.03 0.02 0.02 0.02 0.02 0.02 0.01 0.01 0.02 0.02 0.02 0.02 0.02 0.03 0.03 0.03 0.03 0.03 0.03 0.03 0.02 0.02 0.02 0.02 0.02 0.02 0.02 0.02 0.02 0.02
0.02 0.01 0.01 0.01 0.01 0.01 0.01 0.01 0.01 0.01 0.01 0.02 0.02 0.03 0.03 0.03 0.03 0.04 0.04 0.04 0.03 0.03 0.02 0.01 0.01 0.02 0.02 0.03 0.02 0.02 0.01 0.01 0.01 0.01 0.01 0.01 0.01 0.01 0.01 0.01 0.01 0.01 0.01
0.01 0.01 0.02 0.01 0.01 0.01 0.01 0.01 0.02 0.02 0.01 0.01 0.02 0.03 0.03 0.02 0.02 0.03 0.03 0.04 0.04 0.04 0.05 0.04 0.03 0.03 0.03 0.03 0.02 0.02 0.01 0.01 0.01 0.01 0.01 0.01 0.01 0.01 0.01 0.00 0.01 0.01 0.01
0.01 0.02 0.02 0.03 0.03 0.03 0.03 0.03 0.03 0.03 0.02 0.02 0.02 0.03 0.03 0.02 0.02 0.03 0.03 0.04 0.05 0.05 0.05 0.05 0.04 0.04 0.03 0.02 0.02 0.02 0.01 0.01 0.01 0.02 0.01 0.01 0.01 0.01 0.00 0.00 0.01 0.01 0.01
0.02 0.02 0.03 0.03 0.04 0.04 0.04 0.04 0.04 0.03 0.03 0.03 0.03 0.04 0.03 0.03 0.03 0.04 0.04 0.05 0.05 0.05 0.05 0.05 0.04 0.03 0.02 0.02 0.02 0.01 0.01 0.01 0.01 0.01 0.01 0.02 0.01 0.01 0.00 0.00 0.00 0.00 0.01
0.03 0.04 0.04 0.04 0.04 0.04 0.03 0.03 0.03 0.03 0.03 0.03 0.03 0.03 0.03 0.04 0.04 0.03 0.03 0.03 0.03 0.03 0.03 0.02 0.01 0.01 0.01 0.01 0.01 0.01 0.01 0.01 0.01 0.01 0.01 0.02 0.01 0.01 0.00 0.00 0.00 0.00 0.01
0.02 0.03 0.03 0.03 0.03 0.03 0.03 0.02 0.02 0.02 0.03 0.03 0.03 0.03 0.03 0.02 0.02 0.02 0.01 0.01 0.01 0.01 0.01 0.01 0.01 0.01 0.01 0.01 0.01 0.01 0.01 0.01 0.01 0.01 0.01 0.01 0.01 0.01 0.01 0.01 0.01 0.01 0.01
MSLP
1016.56 1015.80 1015.03 1014.24 1013.44 1012.66 1011.93 1011.28 1010.76 1010.39 1010.18 1010.12 1010.20 1010.38 1010.61 1010.87 1011.13 1011.37 1011.61 1011.84 1012.08 1012.34 1012.62 1012.91 1013.21 1013.50 1013.78 1014.02 1014.23 1014.41 1014.58 1014.74 1014.90 1015.05 1015.20 1015.31 1015.37 1015.37 1015.30 1015.15 1014.93 1014.67 1014.39
1017.06 1016.29 1015.50 1014.68 1013.85 1013.02 1012.22 1011.50 1010.89 1010.42 1010.11 1009.94 1009.92 1009.99 1010.14 1010.32 1010.52 1010.73 1010.94 1011.16 1011.39 1011.65 1011.94 1012.25 1012.57 1012.89 1013.20 1013.49 1013.76 1014.01 1014.25 1014.49 1014.72 1014.95 1015.17 1015.36 1015.50 1015.58 1015.57 1015.49 1015.33 1015.12 1014.88
1017.49 1016.73 1015.95 1015.13 1014.28 1013.42 1012.58 1011.80 1011.12 1010.56 1010.15 1009.88 1009.74 1009.71 1009.76 1009.86 1009.98 1010.13 1010.29 1010.47 1010.68 1010.93 1011.20 1011.52 1011.84 1012.19 1012.53 1012.86 1013.17 1013.48 1013.78 1014.08 1014.39 1014.69 1014.97 1015.24 1015.45 1015.61 1015.69 1015.69 1015.62 1015.48 1015.30
1017.80 1017.08 1016.33 1015.52 1014.67 1013.80 1012.93 1012.11 1011.37 1010.75 1010.26 1009.90 1009.68 1009.55 1009.50 1009.51 1009.56 1009.63 1009.72 1009.85 1010.01 1010.21 1010.46 1010.75 1011.07 1011.41 1011.76 1012.12 1012.47 1012.82 1013.16 1013.51 1013.86 1014.22 1014.56 1014.89 1015.18 1015.42 1015.59 1015.69 1015.72 1015.68 1015.59
1017.99 1017.31 1016.58 1015.79 1014.95 1014.07 1013.19 1012.35 1011.58 1010.92 1010.38 1009.97 1009.68 1009.49 1009.37 1009.30 1009.27 1009.26 1009.28 1009.33 1009.42 1009.56 1009.74 1009.99 1010.27 1010.59 1010.94 1011.29 1011.66 1012.03 1012.40 1012.77 1013.15 1013.54 1013.93 1014.31 1014.67 1014.99 1015.26 1015.47 1015.61 1015.69 1015.70
1018.05 1017.39 1016.66 1015.87 1015.03 1014.14 1013.26 1012.41 1011.64 1010.98 1010.44 1010.02 1009.71 1009.49 1009.33 1009.21 1009.12 1009.04 1008.98 1008.94 1008.94 1008.99 1009.10 1009.26 1009.49 1009.76 1010.08 1010.42 1010.77 1011.14 1011.52 1011.90 1012.30 1012.71 1013.12 1013.54 1013.96 1014.35 1014.72 1015.03 1015.29 1015.49 1015.62
1017.97 1017.29 1016.54 1015.73 1014.86 1013.97 1013.08 1012.25 1011.51 1010.88 1010.37 1009.98 1009.70 1009.50 1009.34 1009.20 1009.07 1008.94 1008.80 1008.67 1008.57 1008.51 1008.52 1008.59 1008.74 1008.95 1009.21 1009.52 1009.85 1010.21 1010.58 1010.96 1011.35 1011.77 1012.20 1012.64 1013.10 1013.56 1014.00 1014.42 1014.80 1015.11 1015.37
1017.74 1017.01 1016.21 1015.35 1014.44 1013.53 1012.65 1011.85 1011.15 1010.58 1010.15 1009.84 1009.62 1009.47 1009.35 1009.22 1009.07 1008.88 1008.68 1008.46 1008.25 1008.09 1007.98 1007.96 1008.01 1008.15 1008.36 1008.62 1008.93 1009.26 1009.62 1009.99 1010.38 1010.79 1011.22 1011.68 1012.16 1012.66 1013.17 1013.67 1014.15 1014.58 1014.94
1017.40 1016.59 1015.71 1014.78 1013.82 1012.89 1012.02 1011.25 1010.62 1010.13 1009.79 1009.57 1009.45 1009.37 1009.30 1009.20 1009.04 1008.82 1008.55 1008.25 1007.94 1007.67 1007.46 1007.33 1007.29 1007.36 1007.51 1007.73 1008.02 1008.33 1008.68 1009.04 1009.42 1009.82 1010.24 1010.70 1011.20 1011.72 1012.28 1012.84 1013.39 1013.91 1014.37
1016.96 1016.06 1015.10 1014.10 1013.10 1012.15 1011.29 1010.57 1010.01 1009.61 1009.37 1009.25 1009.22 1009.22 1009.19 1009.11 1008.95 1008.70 1008.37 1007.99 1007.59 1007.21 1006.90 1006.68 1006.57 1006.56 1006.67 1006.87 1007.13 1007.44 1007.77 1008.13 1008.50 1008.89 1009.31 1009.76 1010.24 1010.78 1011.35 1011.95 1012.55 1013.14 1013.68
1016.48 1015.50 1014.47 1013.42 1012.40 1011.45 1010.62 1009.95 1009.46 1009.14 1008.99 1008.95 1008.99 1009.04 1009.05 1008.97 1008.79 1008.50 1008.11 1007.65 1007.17 1006.71 1006.31 1006.02 1005.84 1005.79 1005.86 1006.03 1006.28 1006.59 1006.93 1007.28 1007.65 1008.03 1008.42 1008.85 1009.32 1009.84 1010.41 1011.01 1011.64 1012.27 1012.87
1016.01 1014.98 1013.92 1012.86 1011.84 1010.92 1010.14 1009.53 1009.10 1008.86 1008.76 1008.77 1008.84 1008.91 1008.92 1008.82 1008.61 1008.27 1007.81 1007.29 1006.73 1006.20 1005.74 1005.38 1005.16 1005.07 1005.12 1005.28 1005.53 1005.83 1006.17 1006.52 1006.88 1007.24 1007.62 1008.02 1008.45 1008.94 1009.48 1010.07 1010.69 1011.33 1011.96
1015.59 1014.57 1013.52 1012.50 1011.54 1010.68 1009.97 1009.43 1009.06 1008.86 1008.79 1008.82 1008.88 1008.92 1008.88 1008.74 1008.47 1008.07 1007.55 1006.97 1006.36 1005.77 1005.27 1004.87 1004.61 1004.50 1004.53 1004.68 1004.92 1005.23 1005.56 1005.90 1006.25 1006.59 1006.93 1007.29 1007.68 1008.12 1008.61 1009.16 1009.75 1010.38 1011.02
1015.25 1014.29 1013.32 1012.39 1011.53 1010.78 1010.16 1009.70 1009.39 1009.21 1009.15 1009.14 1009.16 1009.13 1009.03 1008.81 1008.47 1008.00 1007.44 1006.81 1006.16 1005.55 1005.02 1004.60 1004.33 1004.20 1004.21 1004.35 1004.57 1004.86 1005.17 1005.49 1005.81 1006.11 1006.41 1006.72 1007.05 1007.43 1007.85 1008.34 1008.88 1009.47 1010.09
1014.98 1014.14 1013.31 1012.53 1011.82 1011.20 1010.71 1010.33 1010.07 1009.91 1009.82 1009.77 1009.71 1009.60 1009.41 1009.11 1008.70 1008.18 1007.58 1006.93 1006.27 1005.66 1005.12 1004.70 1004.42 1004.28 1004.27 1004.38 1004.57 1004.82 1005.10 1005.38 1005.65 1005.91 1006.15 1006.39 1006.65 1006.95 1007.30 1007.71 1008.18 1008.71 1009.27
1014.78 1014.09 1013.44 1012.85 1012.32 1011.88 1011.51 1011.23 1011.03 1010.88 1010.77 1010.66 1010.52 1010.32 1010.05 1009.68 1009.22 1008.67 1008.06 1007.41 1006.78 1006.19 1005.67 1005.27 1004.98 1004.83 1004.79 1004.85 1005.00 1005.20 1005.41 1005.63 1005.84 1006.04 1006.21 1006.39 1006.57 1006.79 1007.05 1007.36 1007.74 1008.18 1008.67
1014.59 1014.09 1013.64 1013.26 1012.93 1012.67 1012.45 1012.28 1012.14 1012.01 1011.87 1011.71 1011.51 1011.24 1010.91 1010.49 1010.01 1009.46 1008.88 1008.28 1007.69 1007.15 1006.67 1006.29 1006.01 1005.84 1005.77 1005.78 1005.86 1005.98 1006.12 1006.27 1006.41 1006.53 1006.64 1006.74 1006.85 1006.98 1007.15 1007.36 1007.64 1007.97 1008.36
1014.39 1014.07 1013.84 1013.67 1013.55 1013.46 1013.40 1013.34 1013.26 1013.16 1013.01 1012.82 1012.58 1012.27 1011.90 1011.48 1011.01 1010.51 1009.98 1009.46 1008.95 1008.48 1008.06 1007.71 1007.44 1007.25 1007.14 1007.09 1007.09 1007.13 1007.19 1007.26 1007.32 1007.37 1007.41 1007.44 1007.48 1007.53 1007.61 1007.73 1007.90 1008.12 1008.39
1014.16 1014.02 1013.98 1014.01 1014.08 1014.17 1014.25 1014.29 1014.28 1014.22 1014.09 1013.89 1013.63 1013.31 1012.96 1012.56 1012.14 1011.71 1011.27 1010.84 1010.43 1010.04 1009.69 1009.39 1009.13 1008.92 1008.76 1008.65 1008.58 1008.53 1008.51 1008.50 1008.49 1008.48 1008.46 1008.44 1008.42 1008.41 1008.42 1008.45 1008.52 1008.63 1008.79
1013.93 1013.95 1014.08 1014.28 1014.52 1014.75 1014.95 1015.09 1015.15 1015.13 1015.02 1014.84 1014.59 1014.29 1013.97 1013.63 1013.29 1012.95 1012.61 1012.29 1011.98 1011.68 1011.40 1011.13 1010.89 1010.66 1010.47 1010.30 1010.15 1010.04 1009.94 1009.86 1009.80 1009.74 1009.68 1009.63 1009.57 1009.52 1009.48 1009.45 1009.44 1009.46 1009.52
1013.74 1013.89 1014.15 1014.49 1014.86 1015.22 1015.52 1015.74 1015.86 1015.87 1015.80 1015.64 1015.42 1015.16 1014.89 1014.62 1014.36 1014.11 1013.88 1013.66 1013.45 1013.23 1013.01 1012.78 1012.55 1012.31 1012.08 1011.86 1011.66 1011.49 1011.34 1011.22 1011.12 1011.04 1010.96 1010.90 1010.83 1010.77 1010.70 1010.63 1010.57 1010.53 1010.51
1013.67 1013.91 1014.27 1014.72 1015.18 1015.62 1015.99 1016.27 1016.43 1016.48 1016.44 1016.31 1016.12 1015.91 1015.69 1015.48 1015.30 1015.14 1015.00 1014.86 1014.73 1014.58 1014.40 1014.20 1013.98 1013.73 1013.48 1013.22 1012.99 1012.78 1012.60 1012.45 1012.34 1012.26 1012.19 1012.14 1012.09 1012.03 1011.97 1011.90 1011.82 1011.74 1011.68
1013.76 1014.07 1014.51 1015.01 1015.53 1016.02 1016.43 1016.74 1016.93 1017.01 1016.99 1016.88 1016.73 1016.55 1016.38 1016.23 1016.10 1016.01 1015.93 1015.86 1015.78 1015.67 1015.53 1015.34 1015.12 1014.87 1014.61 1014.33 1014.08 1013.85 1013.66 1013.52 1013.41 1013.35 1013.31 1013.28 1013.26 1013.24 1013.20 1013.15 1013.08 1013.01 1012.94
1014.05 1014.41 1014.88 1015.41 1015.96 1016.47 1016.90 1017.22 1017.43 1017.51 1017.51 1017.42 1017.29 1017.15 1017.01 1016.89 1016.81 1016.75 1016.71 1016.67 1016.62 1016.54 1016.41 1016.24 1016.02 1015.77 1015.50 1015.23 1014.97 1014.74 1014.56 1014.43 1014.34 1014.30 1014.29 1014.31 1014.33 1014.35 1014.35 1014.33 1014.30 1014.25 1014.20
1014.52 1014.89 1015.37 1015.92 1016.46 1016.97 1017.39 1017.72 1017.92 1018.02 1018.02 1017.96 1017.85 1017.73 1017.61 1017.52 1017.46 1017.42 1017.40 1017.37 1017.33 1017.26 1017.14 1016.97 1016.76 1016.52 1016.25 1015.99 1015.74 1015.53 1015.36 1015.25 1015.19 1015.17 1015.19 1015.24 1015.30 1015.35 1015.40 1015.42 1015.43 1015.42 1015.41
1015.08 1015.46 1015.94 1016.46 1016.99 1017.48 1017.89 1018.20 1018.41 1018.52 1018.54 1018.49 1018.41 1018.31 1018.22 1018.15 1018.10 1018.08 1018.06 1018.04 1018.00 1017.93 1017.81 1017.65 1017.45 1017.22 1016.97 1016.72 1016.49 1016.30 1016.15 1016.06 1016.01 1016.01 1016.05 1016.12 1016.20 1016.28 1016.35 1016.41 1016.45 1016.49 1016.51
Thickness
5662 5658 5655 5653 5650 5647 5644 5642 5640 5638 5636 5634 5632 5629 5627 5625 5624 5621 5620 5618 5617 5617 5616 5615 5613 5612 5611 5610 5610 5609 5608 5607 5606 5608 5610 5612 5613 5614 5616 5618 5619 5622 5624
5658 5654 5651 5648 5645 5642 5639 5637 5635 5633 5631 5629 5627 5624 5623 5621 5619 5617 5615 5613 5612 5611 5610 5609 5608 5608 5606 5605 5605 5604 5603 5603 5602 5603 5604 5604 5606 5608 5610 5611 5614 5616 5618
5653 5649 5645 5642 5639 5637 5635 5632 5630 5628 5626 5624 5622 5620 5618 5616 5614 5612 5611 5609 5607 5606 5605 5604 5603 5602 5601 5600 5600 5599 5599 5599 5598 5598 5597 5598 5599 5601 5603 5605 5607 5609 5612
5649 5645 5641 5637 5635 5633 5631 5628 5625 5623 5621 5618 5616 5614 5613 5611 5609 5608 5606 5604 5602 5600 5600 5599 5598 5598 5598 5597 5596 5595 5594 5593 5593 5592 5592 5592 5593 5594 5595 5596 5598 5601 5604
5644 5640 5637 5634 5631 5628 5625 5623 5620 5617 5615 5613 5610 5608 5607 5605 5605 5602 5600 5598 5596 5595 5594 5594 5593 5594 5595 5594 5593 5591 5590 5588 5587 5586 5586 5587 5588 5588 5589 5590 5592 5594 5597
5639 5636 5633 5629 5626 5623 5620 5617 5614 5611 5609 5607 5604 5602 5601 5601 5600 5598 5596 5593 5591 5589 5588 5588 5588 5589 5589 5589 5589 5588 5587 5585 5583 5582 5582 5583 5584 5585 5585 5585 5585 5587 5589
5633 5630 5627 5624 5620 5617 5615 5611 5608 5606 5603 5601 5599 5597 5596 5595 5595 5593 5591 5588 5586 5584 5583 5582 5583 5584 5583 5582 5582 5583 5582 5582 5582 5580 5579 5580 5581 5581 5580 5579 5579 5581 5583
5627 5623 5620 5617 5614 5611 5608 5605 5603 5600 5598 5596 5594 5592 5591 5590 5590 5588 5585 5582 5580 5579 5579 5578 5577 5578 5578 5577 5576 5575 5575 5576 5576 5576 5577 5578 5578 5578 5577 5577 5575 5574 5575
5620 5617 5614 5611 5607 5604 5601 5599 5597 5594 5592 5591 5588 5586 5584 5584 5584 5583 5580 5576 5574 5573 5573 5573 5572 5572 5574 5572 5570 5569 5569 5570 5571 5571 5572 5572 5573 5573 5572 5570 5568 5568 5569
5614 5612 5608 5604 5600 5597 5595 5593 5591 5589 5587 5584 5582 5580 5578 5577 5578 5577 5574 5571 5568 5567 5566 5566 5567 5567 5568 5567 5564 5563 5562 5563 5563 5564 5564 5565 5565 5565 5565 5565 5565 5563 5564
5607 5604 5600 5597 5594 5591 5588 5586 5584 5582 5579 5576 5574 5572 5571 5571 5570 5570 5568 5565 5563 5561 5560 5559 5560 5561 5561 5560 5559 5557 5558 5558 5556 5556 5557 5557 5557 5557 5557 5558 5558 5559 5559
5598 5595 5592 5589 5587 5584 5580 5578 5576 5574 5571 5568 5565 5563 5562 5562 5561 5561 5560 5559 5558 5555 5554 5554 5553 5554 5553 5552 5551 5552 5551 5550 5549 5548 5549 5549 5550 5550 5550 5551 5551 5552 5554
5590 5586 5583 5581 5579 5576 5573 5570 5568 5566 5563 5560 5558 5555 5554 5553 5552 5552 5552 5551 5550 5547 5547 5547 5547 5546 5544 5544 5544 5543 5542 5541 5540 5540 5541 5542 5543 5544 5543 5543 5544 5545 5546
5581 5577 5575 5572 5570 5568 5566 5563 5560 5558 5556 5553 5551 5548 5546 5544 5543 5543 5542 5542 5540 5539 5538 5537 5537 5536 5534 5534 5534 5533 5532 5532 5532 5533 5534 5535 5535 5535 5535 5535 5535 5536 5536
5572 5569 5567 5564 5561 5559 5557 5554 5553 5552 5550 5548 5545 5543 5540 5538 5537 5536 5534 5533 5531 5530 5528 5527 5526 5525 5524 5523 5523 5523 5523 5523 5523 5524 5524 5525 5525 5526 5527 5527 5527 5527 5527
5563 5561 5558 5556 5553 5551 5548 5545 5544 5543 5543 5542 5540 5537 5534 5532 5530 5528 5527 5525 5524 5522 5520 5517 5515 5514 5514 5513 5512 5512 5513 5513 5514 5514 5515 5515 5515 5516 5517 5517 5517 5517 5518
5556 5553 5551 5548 5546 5543 5541 5538 5535 5533 5532 5531 5530 5528 5526 5524 5521 5520 5518 5516 5513 5512 5509 5506 5505 5504 5504 5503 5503 5503 5503 5503 5504 5504 5505 5505 5505 5506 5507 5507 5507 5508 5508
5548 5546 5544 5541 5538 5536 5533 5531 5528 5526 5522 5520 5519 5518 5516 5514 5512 5510 5508 5505 5501 5499 5497 5496 5495 5495 5494 5494 5494 5494 5494 5494 5494 5494 5494 5494 5495 5495 5496 5497 5498 5498 5498
5539 5537 5535 5532 5530 5527 5525 5522 5519 5517 5514 5511 5509 5507 5506 5504 5502 5500 5498 5495 5492 5489 5488 5486 5486 5486 5486 5486 5485 5485 5485 5485 5484 5484 5484 5484 5485 5485 5485 5486 5486 5487 5487
5531 5531 5528 5525 5522 5519 5516 5513 5510 5508 5506 5503 5501 5498 5496 5494 5492 5489 5487 5486 5484 5481 5479 5478 5478 5477 5477 5477 5476 5476 5476 5476 5475 5475 5475 5475 5475 5475 5476 5476 5476 5476 5476
5523 5522 5522 5518 5514 5511 5508 5506 5503 5501 5498 5496 5494 5492 5490 5486 5484 5481 5480 5478 5477 5474 5472 5471 5470 5469 5469 5468 5468 5467 5467 5467 5466 5466 5466 5466 5466 5466 5466 5466 5466 5466 5466
5516 5514 5512 5509 5506 5503 5500 5498 5495 5493 5491 5488 5485 5484 5483 5479 5476 5474 5472 5470 5469 5468 5467 5465 5463 5462 5462 5461 5461 5460 5459 5458 5458 5458 5457 5457 5457 5458 5457 5457 5457 5457 5456
5508 5506 5503 5500 5498 5496 5493 5490 5487 5485 5483 5481 5478 5476 5474 5471 5469 5467 5465 5463 5462 5460 5459 5458 5456 5455 5454 5454 5453 5453 5452 5451 5451 5450 5449 5449 5448 5448 5448 5448 5448 5447 5447
5499 5497 5494 5492 5489 5486 5484 5482 5480 5477 5475 5473 5471 5469 5466 5464 5462 5460 5458 5456 5454 5453 5451 5450 5449 5449 5447 5446 5445 5445 5445 5444 5443 5442 5442 5441 5440 5440 5439 5439 5439 5439 5439
5490 5488 5486 5483 5480 5478 5476 5474 5472 5470 5467 5465 5463 5461 5458 5456 5454 5452 5450 5448 5447 5445 5443 5442 5441 5440 5439 5438 5438 5437 5437 5437 5436 5435 5434 5433 5432 5432 5431 5431 5430 5430 5430
5481 5479 5477 5474 5472 5470 5468 5466 5464 5462 5459 5457 5455 5453 5451 5449 5446 5444 5442 5440 5439 5437 5435 5434 5433 5432 5431 5430 5430 5429 5429 5429 5428 5428 5426 5425 5424 5423 5422 5422 5422 5421 5421